1498770000.78,14987,16.06,73134.8,3.67,-21.67,-22.21,0,*7D
1498770002.06,14988,16.13,73138.0,3.67,-21.67,-22.21,0,*72
1498770003.29,14989,16.06,73136.8,3.67,-21.77,-22.27,0,*74
1498770004.54,14990,16.06,73134.0,3.65,-21.67,-22.21,0,*79
1498770005.78,14991,16.13,73138.0,3.65,-21.53,-21.93,0,*75
1498770006.98,14992,16.13,73138.8,3.65,-21.47,-22.07,0,*7D
1498770008.19,14993,16.13,73136.8,3.65,-21.39,-22.07,0,*75
1498770009.41,14994,16.06,73132.5,3.65,-21.63,-22.21,0,*79
1498770010.62,14995,16.13,73138.0,3.65,-21.77,-22.27,0,*7B
1498770011.87,14996,16.13,73140.3,3.65,-21.67,-22.21,0,*7F
1498770013.08,14997,16.13,73138.5,3.65,-21.47,-22.11,0,*7F
1498770014.31,14998,16.06,73132.8,3.65,-21.53,-22.07,0,*72
1498770015.52,14999,16.13,73138.5,3.65,-21.63,-22.11,0,*77
1498770016.74,15000,16.06,73132.8,3.65,-21.63,-22.21,0,*7C
1498770018.0,15001,16.13,73136.0,3.65,-21.53,-22.21,0,*7E
1498770019.23,15002,16.13,73136.0,3.63,-21.53,-22.27,0,*7D
1498770020.49,15003,16.06,73134.0,3.63,-21.53,-22.17,0,*7F
1498770021.74,15004,16.13,73138.5,3.63,-21.57,-22.31,0,*78
1498770022.97,15005,16.06,73138.8,3.63,-21.53,-22.11,0,*7F
1498770024.23,15006,16.13,73140.8,3.63,-21.33,-21.87,0,*76
1498770025.47,15007,16.13,73142.8,3.63,-21.23,-21.97,0,*77
1498770026.72,15008,16.13,73142.5,3.63,-21.23,-21.97,0,*78
1498770027.98,15009,16.13,73136.8,3.63,-21.53,-22.17,0,*75
1498770029.26,15010,16.13,73138.8,3.61,-21.67,-22.31,0,*7C
1498770030.46,15011,16.06,73140.3,3.63,-21.43,-22.11,0,*7B
1498770031.72,15012,16.13,73142.3,3.63,-21.53,-22.17,0,*7F
1498770032.94,15013,16.06,73140.3,3.63,-21.17,-21.97,0,*75
1498770034.19,15014,16.13,73140.5,3.61,-20.89,-21.57,0,*7A
1498770035.44,15015,16.13,73142.8,3.61,-21.23,-22.03,0,*78
1498770036.66,15016,16.06,73138.3,3.63,-21.09,-21.83,0,*7A
1498770037.88,15017,16.13,73140.3,3.63,-21.03,-21.73,0,*7E
1498770039.07,15018,16.13,73142.8,3.63,-21.09,-21.73,0,*7B
1498770040.29,15019,16.13,73142.0,3.63,-21.17,-21.97,0,*7F
1498770041.52,15020,16.13,73142.3,3.63,-21.33,-22.11,0,*7E
1498770042.77,15021,16.06,73136.0,3.61,-21.23,-22.11,0,*7C
1498770043.96,15022,16.13,73140.3,3.63,-21.09,-22.03,0,*76
1498770045.21,15023,16.06,73138.5,3.61,-21.17,-21.97,0,*74
1498770046.43,15024,16.13,73136.5,3.63,-20.93,-21.83,0,*79
1498770047.68,15025,16.13,73136.0,3.63,-20.79,-21.67,0,*76
1498770048.93,15026,16.06,73126.0,3.63,-21.03,-21.97,0,*76
1498770050.18,15027,16.13,73124.5,3.63,-21.03,-21.87,0,*76
1498770051.41,15028,16.06,73124.5,3.63,-20.93,-21.83,0,*75
1498770052.66,15029,16.06,73128.5,3.61,-21.03,-22.11,0,*76
1498770053.85,15030,16.06,73130.0,3.63,-21.09,-22.03,0,*75
1498770055.08,15031,16.13,73134.3,3.63,-21.03,-22.03,0,*7E
1498770056.31,15032,16.06,73130.0,3.65,-21.13,-22.21,0,*7A
1498770057.53,15033,16.06,73130.8,3.65,-21.03,-22.07,0,*7E
1498770058.76,15034,16.13,73132.8,3.65,-20.99,-22.07,0,*7B
1498770059.99,15035,16.06,73122.8,3.63,-21.17,-22.17,0,*7A
1498770061.2,15036,16.13,73128.0,3.65,-21.17,-22.27,0,*7C
1498770062.45,15037,16.13,73130.0,3.65,-20.99,-21.97,0,*72
1498770063.68,15038,16.13,73132.5,3.65,-21.13,-22.21,0,*70
1498770064.91,15039,16.13,73130.5,3.65,-20.99,-21.93,0,*78
1498770066.12,15040,16.13,73128.0,3.65,-20.69,-21.77,0,*73
1498770067.34,15041,16.13,73130.3,3.65,-20.73,-21.83,0,*72
1498770068.57,15042,16.13,73132.5,3.65,-20.99,-22.11,0,*7D
1498770069.8,15043,16.06,73128.8,3.65,-20.99,-22.11,0,*7C
1498770071.0,15044,16.13,73132.0,3.65,-21.17,-22.41,0,*79
1498770072.24,15045,16.13,73134.5,3.65,-21.39,-22.47,0,*72
1498770073.5,15046,16.13,73132.0,3.65,-21.27,-22.47,0,*7E
1498770074.7,15047,16.06,73132.0,3.65,-21.17,-22.41,0,*7A
1498770075.96,15048,16.06,73130.5,3.65,-21.27,-22.47,0,*70
1498770077.22,15049,16.13,73128.8,3.65,-21.33,-22.47,0,*74
1498770078.48,15050,16.13,73128.5,3.65,-21.33,-22.47,0,*7C
1498770079.71,15051,16.06,73128.0,3.65,-21.39,-22.73,0,*70
1498770080.92,15052,16.06,73128.0,3.65,-21.47,-22.63,0,*7B
1498770082.15,15053,16.13,73130.8,3.65,-21.33,-22.63,0,*79
1498770083.38,15054,16.13,73134.5,3.63,-21.53,-22.93,0,*71
1498770084.61,15055,16.13,73132.8,3.63,-21.67,-22.93,0,*77
1498770085.87,15056,16.13,73136.3,3.61,-21.67,-22.97,0,*72
1498770087.09,15057,16.06,73134.0,3.61,-21.73,-23.09,0,*70
1498770088.3,15058,16.06,73134.0,3.63,-21.73,-22.97,0,*7B
1498770089.5,15059,16.13,73136.3,3.59,-21.77,-23.13,0,*7A
1498770090.75,15060,16.06,73136.5,3.61,-21.67,-22.97,0,*77
1498770092.01,15061,16.13,73134.5,3.61,-21.67,-22.97,0,*76
1498770093.26,15062,16.06,73132.8,3.61,-21.67,-22.97,0,*75
1498770094.49,15063,16.13,73136.8,3.61,-21.73,-23.13,0,*7C
1498770095.74,15064,16.13,73134.3,3.61,-21.57,-22.97,0,*70
1498770096.94,15065,16.06,73128.3,3.59,-21.39,-22.83,0,*77
1498770098.15,15066,16.13,73132.3,3.59,-21.39,-22.73,0,*7B
1498770099.35,15067,16.06,73132.3,3.59,-21.43,-22.83,0,*78
1498770100.58,15068,16.06,73134.0,3.59,-21.27,-22.57,0,*7C
1498770101.8,15069,16.06,73134.0,3.59,-21.23,-22.67,0,*7A
1498770103.03,15070,16.06,73134.8,3.59,-21.27,-22.83,0,*7C
1498770104.23,15071,16.13,73134.5,3.59,-21.47,-22.97,0,*7E
1498770105.43,15072,16.13,73134.8,3.59,-21.47,-22.87,0,*7C
1498770106.63,15073,16.13,73136.3,3.59,-21.43,-22.87,0,*79
1498770107.83,15074,16.06,73134.8,3.59,-21.43,-22.97,0,*7F
1498770109.08,15075,16.13,73136.0,3.57,-21.63,-23.19,0,*75
1498770110.37,15076,16.13,73136.8,3.57,-21.67,-23.19,0,*72
1498770111.59,15077,16.13,73138.0,3.59,-21.63,-23.19,0,*79
1498770112.85,15078,16.13,73138.5,3.57,-21.77,-23.33,0,*75
1498770114.14,15079,16.13,73138.3,3.57,-21.67,-23.23,0,*74
1498770115.39,15080,16.06,73136.0,3.57,-21.77,-23.33,0,*72
1498770116.67,15081,16.06,73136.3,3.57,-21.67,-23.33,0,*72
1498770117.96,15082,16.13,73136.8,3.57,-21.53,-23.23,0,*77
1498770119.22,15083,16.06,73136.0,3.55,-21.33,-23.03,0,*70
1498770120.45,15084,16.13,73138.5,3.53,-21.39,-23.09,0,*71
1498770121.68,15085,16.13,73142.5,3.55,-21.47,-23.19,0,*7E
1498770122.94,15086,16.06,73140.0,3.55,-21.53,-23.33,0,*70
1498770124.16,15087,16.13,73140.0,3.55,-21.17,-22.77,0,*70
1498770125.37,15088,16.13,73144.5,3.55,-20.89,-22.57,0,*7B
1498770126.56,15089,16.06,73136.5,3.55,-20.73,-22.41,0,*78
1498770127.79,15090,16.13,73138.3,3.55,-20.53,-22.11,0,*77
1498770129.01,15091,16.13,73134.8,3.55,-20.35,-21.93,0,*7F
1498770130.22,15092,16.06,73128.3,3.55,-20.89,-22.57,0,*70
1498770131.44,15093,16.13,73132.0,3.55,-21.13,-22.73,0,*75
1498770132.7,15094,16.06,73134.5,3.57,-20.99,-22.63,0,*72
1498770133.98,15095,16.06,73134.5,3.57,-21.03,-22.77,0,*74
1498770135.22,15096,16.06,73132.8,3.57,-20.89,-22.63,0,*71
1498770136.45,15097,16.13,73136.8,3.55,-21.03,-22.87,0,*7B
1498770137.7,15098,16.13,73136.8,3.57,-21.13,-22.77,0,*78
1498770138.92,15099,16.13,73136.3,3.57,-20.73,-22.41,0,*7B
1498770140.15,15100,16.13,73132.0,3.57,-20.89,-22.57,0,*78
1498770141.43,15101,16.06,73130.5,3.57,-21.03,-22.73,0,*7C
1498770142.65,15102,16.13,73132.3,3.61,-21.09,-22.83,0,*7F
1498770143.88,15103,16.06,73128.5,3.57,-21.17,-22.93,0,*75
1498770145.17,15104,16.06,73126.0,3.57,-21.03,-22.77,0,*7D
1498770146.45,15105,16.06,73126.0,3.57,-21.03,-22.77,0,*7C
1498770147.68,15106,16.13,73130.0,3.57,-21.17,-22.93,0,*70
1498770148.96,15107,16.13,73132.5,3.57,-21.33,-23.19,0,*74
1498770150.24,15108,16.13,73130.0,3.57,-21.03,-22.77,0,*71
1498770151.5,15109,16.13,73130.3,3.57,-21.13,-23.03,0,*73
1498770152.76,15110,16.13,73134.8,3.57,-21.27,-23.09,0,*76
1498770154.05,15111,16.13,73134.8,3.57,-21.53,-23.23,0,*7C
1498770155.3,15112,16.13,73132.0,3.57,-21.43,-23.23,0,*7E
1498770156.53,15113,16.13,73132.0,3.55,-21.27,-23.09,0,*77
1498770157.77,15114,16.13,73138.8,3.55,-21.33,-23.09,0,*75
1498770159.0,15115,16.13,73134.5,3.55,-21.33,-23.09,0,*74
1498770160.23,15116,16.06,73134.3,3.55,-21.47,-23.23,0,*7C
1498770161.46,15117,16.13,73136.0,3.55,-21.47,-23.23,0,*7D
1498770162.72,15118,16.13,73136.8,3.53,-21.57,-23.43,0,*73
1498770164.0,15119,16.13,73138.5,3.53,-21.67,-23.53,0,*70
1498770165.22,15120,16.13,73136.0,3.55,-21.63,-23.49,0,*73
1498770166.45,15121,16.13,73132.5,3.53,-21.47,-23.39,0,*75
1498770167.71,15122,16.06,73130.8,3.53,-21.39,-23.23,0,*74
1498770168.91,15123,16.13,73134.0,3.55,-21.47,-23.39,0,*71
1498770170.19,15124,16.06,73128.8,3.53,-21.67,-23.49,0,*75
1498770171.45,15125,16.13,73134.5,3.53,-21.67,-23.43,0,*7E
1498770172.7,15126,16.13,73132.0,3.53,-21.57,-23.39,0,*73
1498770173.95,15127,16.13,73134.8,3.53,-21.47,-23.29,0,*72
1498770175.21,15128,16.13,73130.3,3.51,-21.33,-23.23,0,*76
1498770176.42,15129,16.13,73128.3,3.51,-21.17,-22.97,0,*7F
1498770177.65,15130,16.13,73126.8,3.53,-21.47,-23.39,0,*75
1498770178.88,15131,16.13,73128.3,3.51,-21.53,-23.39,0,*73
1498770180.11,15132,16.06,73130.3,3.49,-21.63,-23.43,0,*77
1498770181.37,15133,16.13,73132.8,3.51,-21.33,-23.23,0,*7C
1498770182.6,15134,16.06,73128.5,3.51,-21.43,-23.19,0,*75
1498770183.83,15135,16.13,73130.5,3.51,-21.47,-23.23,0,*79
1498770185.08,15136,16.13,73128.5,3.49,-21.43,-23.29,0,*7D
1498770186.33,15137,16.06,73124.5,3.49,-21.39,-23.19,0,*72
1498770187.56,15138,16.13,73126.3,3.51,-21.33,-23.09,0,*7F
1498770188.81,15139,16.13,73126.3,3.49,-21.43,-23.29,0,*72
1498770190.1,15140,16.13,73120.8,3.49,-21.53,-23.33,0,*76
1498770191.3,15141,16.06,73124.3,3.51,-21.47,-23.39,0,*71
1498770192.56,15142,16.13,73130.0,3.49,-21.57,-23.43,0,*77
1498770193.84,15143,16.06,73128.3,3.49,-21.53,-23.29,0,*7E
1498770195.09,15144,16.13,73130.0,3.49,-21.43,-23.29,0,*78
1498770196.31,15145,16.06,73136.8,3.49,-21.39,-23.13,0,*7D
1498770197.6,15146,16.13,73128.0,3.49,-20.53,-22.31,0,*72
1498770198.85,15147,16.06,73134.8,3.49,-20.79,-22.63,0,*7C
1498770200.08,15148,16.13,73132.0,3.51,-20.43,-22.21,0,*75
1498770201.3,15149,16.13,73126.3,3.51,-20.29,-21.97,0,*76
1498770202.57,15150,16.06,73102.8,3.53,-19.85,-21.57,0,*7C
1498770203.84,15151,16.06,73096.0,3.53,-19.81,-21.57,0,*79
1498770205.04,15152,16.13,73104.3,3.55,-20.09,-21.77,0,*74
1498770206.27,15153,16.13,73098.0,3.55,-19.65,-21.47,0,*76
1498770207.52,15154,16.06,73098.0,3.55,-19.65,-21.33,0,*72
1498770208.75,15155,16.13,73096.3,3.59,-19.61,-21.43,0,*7C
1498770209.97,15156,16.06,73092.3,3.59,-20.19,-21.93,0,*77
1498770211.2,15157,16.13,73104.3,3.59,-19.51,-21.27,0,*7F
1498770212.41,15158,16.06,73100.5,3.59,-19.71,-21.47,0,*74
1498770213.65,15159,16.13,73116.3,3.59,-20.15,-21.87,0,*71
1498770214.89,15160,16.13,73116.8,3.63,-20.43,-22.17,0,*7B
1498770216.13,15161,16.06,73118.3,3.61,-19.65,-21.43,0,*74
1498770217.38,15162,16.13,73120.8,3.63,-20.15,-21.83,0,*74
1498770218.6,15163,16.13,73110.5,3.63,-20.49,-22.41,0,*71
1498770219.83,15164,16.06,73116.0,3.63,-20.39,-22.17,0,*72
1498770221.03,15165,16.06,73100.8,3.63,-18.41,-19.99,0,*79
1498770222.29,15166,16.13,73096.5,3.67,-18.07,-19.65,0,*7F
1498770223.57,15167,16.13,73122.5,3.67,-19.31,-21.03,0,*71
1498770224.85,15168,16.13,73116.0,3.71,-19.61,-21.27,0,*7A
1498770226.09,15169,16.13,73114.3,3.73,-19.81,-21.57,0,*70
1498770227.34,15170,16.13,73114.5,3.71,-20.15,-22.03,0,*7F
1498770228.57,15171,16.13,73116.3,3.73,-19.99,-21.87,0,*7D
1498770229.84,15172,16.13,73116.5,3.75,-20.35,-22.17,0,*7E
1498770231.09,15173,16.06,73126.0,3.71,-20.79,-22.53,0,*73
1498770232.31,15174,16.13,73124.5,3.73,-20.49,-22.27,0,*76
1498770233.51,15175,16.06,73134.0,3.73,-20.63,-22.37,0,*7E
1498770234.77,15176,16.06,73132.5,3.73,-20.79,-22.47,0,*71
1498770236.01,15177,16.06,73140.0,3.71,-20.53,-22.37,0,*7D
1498770237.26,15178,16.13,73126.0,3.73,-20.15,-21.87,0,*7A
1498770238.45,15179,16.13,73124.5,3.73,-20.09,-21.73,0,*7D
1498770239.71,15180,16.06,73118.3,3.75,-19.99,-21.67,0,*7B
1498770240.93,15181,16.13,73130.8,3.73,-19.99,-21.83,0,*76
1498770242.18,15182,16.06,73122.0,3.75,-20.09,-21.87,0,*74
1498770243.37,15183,16.06,73122.3,3.77,-20.29,-22.11,0,*79
1498770244.62,15184,16.06,73124.3,3.75,-20.63,-22.47,0,*71
1498770245.85,15185,16.06,73128.3,3.75,-20.89,-22.53,0,*71
1498770247.07,15186,16.13,73130.3,3.75,-20.63,-22.37,0,*74
1498770248.31,15187,16.06,73134.8,3.75,-20.49,-22.27,0,*7C
1498770249.53,15188,16.13,73142.0,3.75,-20.93,-22.67,0,*70
1498770250.81,15189,16.06,73140.0,3.75,-21.03,-22.77,0,*78
1498770252.05,15190,16.13,73144.3,3.75,-21.03,-22.83,0,*7B
1498770253.28,15191,16.13,73146.0,3.75,-21.09,-22.93,0,*71
1498770254.53,15192,16.13,73146.0,3.75,-21.23,-22.97,0,*7E
1498770255.75,15193,16.13,73148.8,3.75,-21.17,-22.83,0,*7D
1498770256.97,15194,16.13,73144.5,3.73,-20.93,-22.77,0,*7A
1498770258.23,15195,16.13,73144.8,3.75,-21.23,-22.93,0,*7D
1498770259.5,15196,16.06,73142.0,3.71,-21.27,-23.03,0,*76
1498770260.71,15197,16.06,73140.8,3.73,-21.17,-22.93,0,*7E
1498770261.91,15198,16.13,73140.8,3.73,-21.09,-22.93,0,*7E
1498770263.19,15199,16.13,73140.8,3.71,-21.33,-23.19,0,*77
1498770264.41,15200,16.13,73142.0,3.71,-21.13,-22.97,0,*71
1498770265.66,15201,16.06,73138.5,3.71,-20.83,-22.67,0,*77
1498770266.92,15202,16.06,73136.0,3.71,-21.23,-22.97,0,*70
1498770268.17,15203,16.06,73134.3,3.71,-21.43,-23.19,0,*70
1498770269.39,15204,16.06,73132.5,3.73,-21.27,-23.13,0,*7D
1498770270.64,15205,16.13,73132.5,3.71,-21.43,-23.29,0,*75
1498770271.92,15206,16.13,73132.0,3.67,-21.53,-23.33,0,*7B
1498770273.18,15207,16.13,73132.8,3.67,-21.53,-23.39,0,*70
1498770274.46,15208,16.13,73136.5,3.67,-21.33,-23.23,0,*72
1498770275.71,15209,16.13,73134.8,3.67,-21.39,-23.23,0,*79
1498770277.0,15210,16.06,73132.3,3.67,-21.33,-23.23,0,*7B
1498770278.28,15211,16.06,73134.5,3.67,-21.33,-23.23,0,*7A
1498770279.53,15212,16.06,73128.5,3.67,-21.39,-23.19,0,*7A
1498770280.76,15213,16.13,73134.8,3.65,-21.39,-23.19,0,*79
1498770282.04,15214,16.13,73132.8,3.67,-21.27,-23.19,0,*73
1498770283.3,15215,16.13,73134.3,3.67,-21.33,-23.09,0,*76
1498770284.51,15216,16.13,73132.3,3.65,-21.17,-23.09,0,*71
1498770285.71,15217,16.06,73128.3,3.65,-21.39,-23.09,0,*7C
1498770286.95,15218,16.06,73128.0,3.65,-21.27,-23.09,0,*7C
1498770288.18,15219,16.13,73130.5,3.65,-21.33,-23.09,0,*78
1498770289.44,15220,16.13,73128.5,3.65,-21.33,-23.19,0,*73
1498770290.67,15221,16.13,73128.3,3.65,-21.47,-23.33,0,*79
1498770291.92,15222,16.13,73126.3,3.65,-21.53,-23.33,0,*7F
1498770293.18,15223,16.06,73124.0,3.65,-21.53,-23.33,0,*7E
1498770294.44,15224,16.06,73122.0,3.65,-21.53,-23.33,0,*79
1498770295.7,15225,16.13,73124.8,3.65,-21.53,-23.33,0,*78
1498770296.93,15226,16.13,73122.0,3.65,-21.47,-23.33,0,*7E
1498770298.16,15227,16.13,73122.8,3.63,-21.67,-23.39,0,*71
1498770299.39,15228,16.13,73120.0,3.63,-21.67,-23.43,0,*73
1498770300.59,15229,16.13,73120.0,3.63,-21.73,-23.43,0,*77
1498770301.83,15230,16.13,73120.3,3.63,-21.67,-23.43,0,*7A
1498770303.08,15231,16.13,73120.8,3.61,-21.73,-23.49,0,*76
1498770304.35,15232,16.13,73122.5,3.61,-21.83,-23.49,0,*7A
1498770305.62,15233,16.13,73126.8,3.61,-21.67,-23.49,0,*71
1498770306.88,15234,16.13,73126.5,3.61,-21.83,-23.43,0,*76
1498770308.12,15235,16.13,73130.0,3.61,-21.57,-23.39,0,*73
1498770309.34,15236,16.06,73124.0,3.63,-21.57,-23.39,0,*72
1498770310.57,15237,16.06,73122.5,3.59,-21.73,-23.49,0,*7B
1498770311.82,15238,16.13,73126.3,3.57,-21.77,-23.53,0,*75
1498770313.05,15239,16.13,73126.3,3.59,-21.47,-23.19,0,*77
1498770314.28,15240,16.13,73128.8,3.59,-21.27,-23.13,0,*75
1498770315.53,15241,16.13,73126.8,3.59,-21.27,-23.19,0,*7E
1498770316.76,15242,16.06,73126.3,3.57,-21.47,-23.39,0,*77
1498770317.98,15243,16.06,73126.5,3.59,-21.57,-23.43,0,*74
1498770319.21,15244,16.13,73130.8,3.59,-21.47,-23.33,0,*75
1498770320.44,15245,16.13,73128.0,3.59,-21.27,-23.13,0,*70
1498770321.69,15246,16.13,73132.3,3.57,-21.43,-23.33,0,*7D
1498770322.91,15247,16.13,73130.0,3.59,-21.47,-23.33,0,*76
1498770324.19,15248,16.13,73130.8,3.57,-21.53,-23.49,0,*7F
1498770325.42,15249,16.06,73130.5,3.57,-21.77,-23.59,0,*79
1498770326.7,15250,16.13,73130.0,3.57,-21.67,-23.49,0,*71
1498770327.93,15251,16.13,73130.8,3.57,-21.47,-23.39,0,*75
1498770329.18,15252,16.13,73130.8,3.57,-21.47,-23.33,0,*7C
1498770330.44,15253,16.06,73128.0,3.57,-21.47,-23.33,0,*7D
1498770331.69,15254,16.13,73128.5,3.57,-21.27,-23.13,0,*7E
1498770332.98,15255,16.13,73130.8,3.57,-21.27,-23.03,0,*7E
1498770334.23,15256,16.13,73126.0,3.59,-21.33,-23.03,0,*76
1498770335.51,15257,16.13,73126.3,3.57,-21.33,-23.19,0,*72
1498770336.71,15258,16.13,73124.5,3.59,-21.09,-22.93,0,*79
1498770337.99,15259,16.13,73124.5,3.57,-21.33,-23.19,0,*7C
1498770339.19,15260,16.13,73126.3,3.59,-21.09,-22.87,0,*77
1498770340.41,15261,16.13,73124.5,3.57,-21.13,-22.87,0,*73
1498770341.64,15262,16.13,73124.8,3.57,-21.13,-22.87,0,*70
1498770342.9,15263,16.06,73120.8,3.57,-21.13,-22.77,0,*7E
1498770344.12,15264,16.06,73126.5,3.59,-21.03,-22.67,0,*77
1498770345.35,15265,16.13,73130.3,3.59,-20.83,-22.57,0,*7C
1498770346.58,15266,16.13,73124.3,3.59,-20.63,-22.47,0,*70
1498770347.81,15267,16.06,73126.0,3.59,-20.83,-22.57,0,*7E
1498770349.05,15268,16.06,73120.3,3.59,-20.49,-22.21,0,*76
1498770350.28,15269,16.13,73120.8,3.61,-20.39,-22.27,0,*7D
1498770351.5,15270,16.13,73116.8,3.61,-20.63,-22.41,0,*7A
1498770352.75,15271,16.13,73116.3,3.63,-20.79,-22.47,0,*74
1498770353.97,15272,16.13,73120.0,3.61,-20.73,-22.53,0,*7A
1498770355.18,15273,16.13,73120.0,3.63,-20.89,-22.63,0,*7F
1498770356.4,15274,16.13,73120.3,3.61,-21.09,-22.93,0,*7C
1498770357.63,15275,16.06,73120.5,3.61,-21.17,-22.97,0,*76
1498770358.83,15276,16.13,73130.0,3.63,-20.89,-22.63,0,*7A
1498770360.06,15277,16.06,73128.5,3.63,-21.03,-22.63,0,*78
1498770361.29,15278,16.13,73132.8,3.63,-21.33,-23.09,0,*79
1498770362.52,15279,16.13,73138.0,3.63,-21.53,-23.13,0,*75
1498770363.78,15280,16.06,73136.0,3.63,-21.53,-23.23,0,*70
1498770365.03,15281,16.06,73134.5,3.63,-21.53,-23.29,0,*7B
1498770366.28,15282,16.06,73136.0,3.61,-21.67,-23.39,0,*7C
1498770367.52,15283,16.13,73136.8,3.61,-21.83,-23.59,0,*71
1498770368.75,15284,16.06,73136.8,3.61,-21.73,-23.43,0,*72
1498770370.0,15285,16.13,73140.0,3.61,-21.73,-23.49,0,*79
1498770371.21,15286,16.13,73142.5,3.59,-21.77,-23.43,0,*7F
1498770372.46,15287,16.06,73138.5,3.59,-21.57,-23.33,0,*7B
1498770373.68,15288,16.06,73140.3,3.61,-21.39,-23.09,0,*7E
1498770374.91,15289,16.06,73136.8,3.61,-21.39,-23.09,0,*7F
1498770376.15,15290,16.06,73140.0,3.59,-21.57,-23.33,0,*7D
1498770377.38,15291,16.06,73142.3,3.59,-21.63,-23.33,0,*7B
1498770378.62,15292,16.13,73140.8,3.59,-21.57,-23.29,0,*74
1498770379.82,15293,16.06,73142.8,3.59,-21.63,-23.43,0,*7E
1498770381.05,15294,16.13,73142.8,3.59,-21.47,-23.19,0,*70
1498770382.28,15295,16.13,73140.5,3.59,-21.39,-23.03,0,*73
1498770383.53,15296,16.13,73140.8,3.57,-21.33,-22.93,0,*7C
1498770384.79,15297,16.06,73138.5,3.57,-21.27,-23.09,0,*7A
1498770386.05,15298,16.13,73136.5,3.57,-21.33,-23.09,0,*70
1498770387.31,15299,16.13,73138.3,3.57,-21.27,-22.93,0,*76
1498770388.56,15300,16.06,73138.3,3.59,-21.33,-23.03,0,*74
1498770389.82,15301,16.13,73138.8,3.57,-21.27,-22.93,0,*76
1498770391.07,15302,16.13,73136.8,3.59,-21.33,-23.03,0,*76
1498770392.33,15303,16.06,73132.8,3.57,-21.33,-23.09,0,*73
1498770393.56,15304,16.13,73132.0,3.59,-21.47,-23.23,0,*71
1498770394.78,15305,16.13,73134.0,3.59,-21.39,-23.03,0,*7B
1498770396.06,15306,16.06,73128.5,3.57,-21.27,-23.03,0,*79
1498770397.34,15307,16.06,73128.0,3.57,-21.27,-22.77,0,*7A
1498770398.54,15308,16.13,73134.3,3.59,-21.13,-22.83,0,*77
1498770399.77,15309,16.13,73128.5,3.59,-21.13,-22.77,0,*7D
1498770400.99,15310,16.13,73130.8,3.59,-21.09,-22.73,0,*7A
1498770402.21,15311,16.13,73128.3,3.59,-21.23,-22.87,0,*78
1498770403.47,15312,16.06,73126.3,3.57,-21.03,-22.63,0,*7D
1498770404.71,15313,16.13,73126.5,3.59,-20.43,-22.17,0,*74
1498770405.93,15314,16.06,73120.8,3.59,-20.53,-22.37,0,*70
1498770407.18,15315,16.13,73124.3,3.59,-20.49,-22.31,0,*7C
1498770408.4,15316,16.13,73122.8,3.59,-20.35,-22.07,0,*71
1498770409.62,15317,16.13,73122.0,3.59,-20.79,-22.53,0,*79
1498770410.84,15318,16.06,73116.8,3.61,-20.93,-22.67,0,*7E
1498770412.08,15319,16.06,73120.5,3.61,-20.79,-22.41,0,*7F
1498770413.3,15320,16.13,73126.3,3.61,-20.63,-22.41,0,*7E
1498770414.53,15321,16.06,73128.3,3.61,-20.89,-22.53,0,*78
1498770415.75,15322,16.13,73128.8,3.61,-20.63,-22.41,0,*7C
1498770416.97,15323,16.13,73130.0,3.63,-20.73,-22.47,0,*78
1498770418.22,15324,16.06,73124.8,3.61,-20.79,-22.53,0,*72
1498770419.42,15325,16.13,73128.8,3.63,-20.89,-22.53,0,*7E
1498770420.7,15326,16.13,73130.8,3.61,-20.79,-22.47,0,*75
1498770421.92,15327,16.13,73128.0,3.63,-21.09,-22.77,0,*73
1498770423.17,15328,16.13,73130.3,3.63,-21.03,-22.77,0,*76
1498770424.45,15329,16.06,73126.5,3.61,-20.49,-22.17,0,*7C
1498770425.65,15330,16.06,73124.8,3.63,-20.39,-22.27,0,*72
1498770426.86,15331,16.13,73130.3,3.63,-20.59,-22.27,0,*75
1498770428.09,15332,16.13,73128.8,3.63,-20.89,-22.47,0,*7D
1498770429.32,15333,16.06,73128.3,3.63,-20.89,-22.47,0,*7C
1498770430.55,15334,16.13,73130.3,3.63,-20.79,-22.53,0,*71
1498770431.74,15335,16.06,73128.8,3.63,-20.73,-22.41,0,*79
1498770432.99,15336,16.06,73130.8,3.63,-20.79,-22.47,0,*76
1498770434.19,15337,16.06,73128.8,3.63,-20.93,-22.67,0,*71
1498770435.41,15338,16.06,73132.8,3.61,-21.09,-22.93,0,*75
1498770436.64,15339,16.06,73132.8,3.65,-20.99,-22.57,0,*70
1498770437.84,15340,16.13,73130.5,3.63,-21.09,-22.83,0,*79
1498770439.04,15341,16.13,73130.0,3.63,-21.09,-22.93,0,*79
1498770440.26,15342,16.13,73130.0,3.61,-21.17,-22.83,0,*76
1498770441.48,15343,16.06,73128.8,3.61,-21.09,-22.93,0,*79
1498770442.69,15344,16.13,73128.8,3.63,-21.17,-22.93,0,*73
1498770443.89,15345,16.13,73130.3,3.63,-21.17,-22.93,0,*72
1498770445.14,15346,16.13,73132.0,3.61,-21.03,-22.83,0,*77
1498770446.36,15347,16.13,73132.5,3.61,-21.09,-22.93,0,*7D
1498770447.59,15348,16.13,73134.3,3.61,-20.89,-22.53,0,*77
1498770448.81,15349,16.06,73126.5,3.61,-20.59,-22.41,0,*78
1498770450.04,15350,16.13,73128.0,3.63,-20.73,-22.47,0,*7C
1498770451.27,15351,16.06,73124.5,3.61,-20.89,-22.63,0,*7C
1498770452.47,15352,16.13,73130.5,3.63,-20.89,-22.63,0,*7D
1498770453.7,15353,16.06,73128.3,3.61,-20.89,-22.63,0,*7E
1498770454.9,15354,16.06,73130.3,3.63,-20.93,-22.67,0,*74
1498770456.09,15355,16.06,73126.5,3.63,-20.73,-22.53,0,*7C
1498770457.33,15356,16.13,73126.0,3.63,-20.59,-22.47,0,*72
1498770458.53,15357,16.06,73126.5,3.63,-20.43,-22.41,0,*7E
1498770459.78,15358,16.13,73132.5,3.63,-20.79,-22.47,0,*7E
1498770460.98,15359,16.06,73128.0,3.63,-20.73,-22.53,0,*70
1498770462.18,15360,16.13,73132.0,3.63,-20.93,-22.63,0,*77
1498770463.38,15361,16.13,73130.3,3.63,-20.89,-22.53,0,*7E
1498770464.58,15362,16.06,73128.3,3.63,-20.63,-22.53,0,*79
1498770465.78,15363,16.13,73128.8,3.63,-20.73,-22.53,0,*79
1498770466.98,15364,16.06,73122.8,3.63,-20.93,-22.63,0,*73
1498770468.2,15365,16.06,73122.8,3.61,-20.93,-22.67,0,*74
1498770469.41,15366,16.06,73122.8,3.65,-21.13,-22.93,0,*71
1498770470.62,15367,16.06,73120.8,3.65,-21.13,-22.93,0,*70
1498770471.85,15368,16.13,73132.5,3.65,-20.83,-22.63,0,*78
1498770473.05,15369,16.06,73130.8,3.63,-20.93,-22.67,0,*7A
1498770474.25,15370,16.13,73134.5,3.63,-21.09,-22.93,0,*7B
1498770475.45,15371,16.13,73138.8,3.63,-21.17,-22.83,0,*74
1498770476.65,15372,16.13,73134.0,3.63,-21.17,-22.93,0,*76
1498770477.84,15373,16.06,73134.8,3.63,-21.09,-22.83,0,*79
1498770479.05,15374,16.13,73134.8,3.63,-20.93,-22.63,0,*72
1498770480.24,15375,16.13,73132.3,3.63,-20.63,-22.41,0,*7C
1498770481.47,15376,16.13,73132.8,3.63,-20.43,-22.17,0,*7E
1498770482.73,15377,16.06,73132.0,3.65,-20.53,-22.21,0,*7D
1498770483.96,15378,16.13,73134.8,3.63,-20.59,-22.31,0,*7F
1498770485.21,15379,16.06,73134.5,3.65,-20.53,-22.21,0,*73
1498770486.41,15380,16.13,73134.3,3.63,-20.63,-22.41,0,*76
1498770487.63,15381,16.06,73130.3,3.63,-20.93,-22.47,0,*7E
1498770488.84,15382,16.13,73132.8,3.63,-20.89,-22.53,0,*73
1498770490.03,15383,16.13,73134.0,3.63,-20.63,-22.41,0,*75
1498770491.22,15384,16.13,73132.3,3.63,-20.73,-22.41,0,*73
1498770492.45,15385,16.06,73130.0,3.63,-20.63,-22.31,0,*74
1498770493.68,15386,16.13,73132.8,3.63,-20.39,-21.87,0,*76
1498770494.88,15387,16.06,73130.5,3.63,-20.39,-22.03,0,*78
1498770496.11,15388,16.06,73126.3,3.63,-20.63,-22.17,0,*7D
1498770497.32,15389,16.06,73122.0,3.65,-20.59,-22.27,0,*70
1498770498.55,15390,16.06,73122.8,3.65,-20.83,-22.37,0,*7E
1498770499.75,15391,16.06,73124.0,3.63,-20.73,-22.27,0,*77
1498770500.97,15392,16.13,73124.5,3.65,-20.53,-22.07,0,*72
1498770502.18,15393,16.06,73126.5,3.65,-20.69,-22.27,0,*78